• In Deutschland
  • Länderverzeichnis
  • Für 7 Tage
  • Wassertemperatur
  • Satellitenkarten
  • Wetterkarte
  • Widgets
  • user-avatar
    Anmelden

    Stündliche Wetter Changchun

    Heute, 22 Juli, Sonntag

    Zeit Temperatur Niederschläge Wind Luftdruck Luftfeuchtigkeit
    00:00 +27°C° 0 mm 5 m/S 735 mmHg 81%
    01:00 +26°C° 0 mm 5 m/S 735 mmHg 82%
    02:00 +26°C° 0 mm 5 m/S 735 mmHg 82%
    03:00 +26°C° 0,4 mm 5 m/S 735 mmHg 85%
    04:00 +25°C° 0,4 mm 5 m/S 735 mmHg 88%
    05:00 +25°C° 0,4 mm 5 m/S 735 mmHg 90%
    06:00 +26°C° 0,2 mm 5 m/S 736 mmHg 89%
    07:00 +27°C° 0,2 mm 6 m/S 736 mmHg 87%
    08:00 +27°C° 0,2 mm 6 m/S 736 mmHg 85%
    09:00 +29°C° 0,2 mm 6 m/S 736 mmHg 83%
    10:00 +30°C° 0,2 mm 6 m/S 736 mmHg 80%
    11:00 +32°C° 0,2 mm 5 m/S 736 mmHg 77%
    12:00 +33°C° 0,6 mm 5 m/S 736 mmHg 75%
    13:00 +34°C° 0,6 mm 5 m/S 735 mmHg 74%
    14:00 +34°C° 0,6 mm 5 m/S 735 mmHg 72%
    15:00 +34°C° 1,4 mm 4 m/S 735 mmHg 74%
    16:00 +34°C° 1,4 mm 4 m/S 735 mmHg 75%
    17:00 +34°C° 1,4 mm 3 m/S 735 mmHg 77%
    18:00 +33°C° 0,5 mm 3 m/S 735 mmHg 81%
    19:00 +30°C° 0,5 mm 3 m/S 735 mmHg 84%
    20:00 +29°C° 0,5 mm 3 m/S 735 mmHg 87%
    21:00 +28°C° 0,2 mm 3 m/S 736 mmHg 89%
    22:00 +28°C° 0,2 mm 4 m/S 736 mmHg 90%
    23:00 +27°C° 0,2 mm 4 m/S 736 mmHg 92%

    Morgen, 23 Juli, Montag

    Zeit Temperatur Niederschläge Wind Luftdruck Luftfeuchtigkeit
    00:00 +27°C° 0,1 mm 3 m/S 736 mmHg 91%
    01:00 +26°C° 0,1 mm 3 m/S 736 mmHg 91%
    02:00 +26°C° 0,1 mm 3 m/S 736 mmHg 91%
    03:00 +25°C° 0,5 mm 3 m/S 736 mmHg 92%
    04:00 +25°C° 0,5 mm 3 m/S 736 mmHg 92%
    05:00 +24°C° 0,5 mm 3 m/S 737 mmHg 92%
    06:00 +25°C° 0,5 mm 3 m/S 737 mmHg 89%
    07:00 +27°C° 0,5 mm 3 m/S 737 mmHg 85%
    08:00 +28°C° 0,5 mm 3 m/S 737 mmHg 82%
    09:00 +29°C° 0 mm 3 m/S 737 mmHg 77%
    10:00 +31°C° 0 mm 3 m/S 737 mmHg 72%
    11:00 +33°C° 0 mm 3 m/S 737 mmHg 67%
    12:00 +34°C° 0 mm 3 m/S 737 mmHg 65%
    13:00 +35°C° 0 mm 2 m/S 737 mmHg 63%
    14:00 +35°C° 0 mm 2 m/S 736 mmHg 61%
    15:00 +35°C° 0 mm 2 m/S 736 mmHg 63%
    16:00 +35°C° 0 mm 2 m/S 736 mmHg 65%
    17:00 +34°C° 0 mm 1 m/S 736 mmHg 67%
    18:00 +32°C° 0 mm 1 m/S 736 mmHg 70%
    19:00 +31°C° 0 mm 1 m/S 736 mmHg 73%
    20:00 +29°C° 0 mm 1 m/S 736 mmHg 76%
    21:00 +28°C° 0,1 mm 1 m/S 736 mmHg 77%
    22:00 +28°C° 0,1 mm 1 m/S 736 mmHg 78%
    23:00 +27°C° 0,1 mm 1 m/S 737 mmHg 79%

    übermorgen, 24 Juli, Dienstag

    Zeit Temperatur Niederschläge Wind Luftdruck Luftfeuchtigkeit
    00:00 +27°C° 0 mm 1 m/S 736 mmHg 81%
    01:00 +26°C° 0 mm 1 m/S 736 mmHg 82%
    02:00 +26°C° 0 mm 2 m/S 736 mmHg 83%
    03:00 +26°C° 0 mm 2 m/S 736 mmHg 84%
    04:00 +25°C° 0 mm 2 m/S 736 mmHg 85%
    05:00 +25°C° 0 mm 2 m/S 736 mmHg 86%
    06:00 +27°C° 0 mm 2 m/S 736 mmHg 82%
    07:00 +28°C° 0 mm 2 m/S 737 mmHg 78%
    08:00 +30°C° 0 mm 2 m/S 737 mmHg 75%
    09:00 +31°C° 0 mm 2 m/S 737 mmHg 71%
    10:00 +33°C° 0 mm 3 m/S 737 mmHg 67%
    11:00 +34°C° 0 mm 3 m/S 736 mmHg 63%
    12:00 +33°C° 0,2 mm 3 m/S 736 mmHg 68%
    13:00 +31°C° 0,2 mm 3 m/S 736 mmHg 74%
    14:00 +30°C° 0,2 mm 3 m/S 735 mmHg 79%
    15:00 +30°C° 0,2 mm 2 m/S 735 mmHg 80%
    16:00 +30°C° 0,2 mm 2 m/S 735 mmHg 81%
    17:00 +30°C° 0,2 mm 1 m/S 735 mmHg 81%
    18:00 +29°C° 0 mm 2 m/S 735 mmHg 84%
    19:00 +28°C° 0 mm 2 m/S 735 mmHg 86%
    20:00 +27°C° 0 mm 2 m/S 735 mmHg 89%
    21:00 +27°C° 0,1 mm 2 m/S 734 mmHg 89%
    22:00 +27°C° 0,1 mm 2 m/S 734 mmHg 89%
    23:00 +26°C° 0,1 mm 2 m/S 734 mmHg 89%

    25 Juli, Mittwoch

    Zeit Temperatur Niederschläge Wind Luftdruck Luftfeuchtigkeit
    00:00 +26°C° 0,6 mm 2 m/S 734 mmHg 90%
    01:00 +26°C° 0,6 mm 2 m/S 733 mmHg 91%
    02:00 +26°C° 0,6 mm 2 m/S 733 mmHg 92%
    03:00 +26°C° 0,4 mm 2 m/S 733 mmHg 92%
    04:00 +26°C° 0,4 mm 3 m/S 733 mmHg 91%
    05:00 +26°C° 0,4 mm 3 m/S 732 mmHg 91%
    06:00 +27°C° 0 mm 4 m/S 732 mmHg 88%
    07:00 +28°C° 0 mm 5 m/S 732 mmHg 84%
    08:00 +29°C° 0 mm 6 m/S 731 mmHg 80%
    09:00 +29°C° 1,8 mm 7 m/S 731 mmHg 82%
    10:00 +29°C° 1,8 mm 8 m/S 730 mmHg 83%
    11:00 +28°C° 1,8 mm 8 m/S 729 mmHg 85%
    12:00 +28°C° 2,8 mm 9 m/S 729 mmHg 86%
    13:00 +28°C° 2,8 mm 10 m/S 728 mmHg 88%
    14:00 +27°C° 2,8 mm 11 m/S 728 mmHg 90%
    15:00 +28°C° 0,3 mm 10 m/S 728 mmHg 89%
    16:00 +28°C° 0,3 mm 9 m/S 729 mmHg 87%
    17:00 +29°C° 0,3 mm 7 m/S 729 mmHg 86%
    18:00 +28°C° 0,6 mm 6 m/S 730 mmHg 88%
    19:00 +27°C° 0,6 mm 5 m/S 731 mmHg 91%
    20:00 +27°C° 0,6 mm 4 m/S 731 mmHg 93%
    21:00 +27°C° 0,6 mm 4 m/S 731 mmHg 94%
    22:00 +26°C° 0,6 mm 4 m/S 732 mmHg 94%
    23:00 +26°C° 0,6 mm 3 m/S 732 mmHg 95%

    26 Juli, Donnerstag

    Zeit Temperatur Niederschläge Wind Luftdruck Luftfeuchtigkeit
    00:00 +26°C° 0,3 mm 3 m/S 732 mmHg 96%
    01:00 +25°C° 0,3 mm 3 m/S 732 mmHg 96%
    02:00 +25°C° 0,3 mm 3 m/S 732 mmHg 97%
    03:00 +25°C° 0,1 mm 3 m/S 732 mmHg 97%
    04:00 +25°C° 0,1 mm 3 m/S 732 mmHg 97%
    05:00 +24°C° 0,1 mm 3 m/S 732 mmHg 97%
    06:00 +25°C° 0,1 mm 3 m/S 733 mmHg 93%
    07:00 +26°C° 0,1 mm 4 m/S 733 mmHg 90%
    08:00 +26°C° 0,1 mm 4 m/S 734 mmHg 87%
    09:00 +27°C° 0,1 mm 5 m/S 734 mmHg 82%
    10:00 +28°C° 0,1 mm 5 m/S 734 mmHg 77%
    11:00 +29°C° 0,1 mm 6 m/S 734 mmHg 71%
    12:00 +30°C° 0,1 mm 6 m/S 734 mmHg 70%
    13:00 +30°C° 0,1 mm 5 m/S 734 mmHg 68%
    14:00 +30°C° 0,1 mm 5 m/S 734 mmHg 67%
    15:00 +30°C° 0,1 mm 4 m/S 734 mmHg 70%
    16:00 +30°C° 0,1 mm 4 m/S 734 mmHg 72%
    17:00 +30°C° 0,1 mm 3 m/S 734 mmHg 75%
    18:00 +29°C° 0 mm 2 m/S 734 mmHg 77%
    19:00 +27°C° 0 mm 2 m/S 734 mmHg 80%
    20:00 +26°C° 0 mm 2 m/S 734 mmHg 83%
    21:00 +25°C° 0 mm 1 m/S 734 mmHg 84%
    22:00 +25°C° 0 mm 1 m/S 734 mmHg 86%
    23:00 +24°C° 0 mm 1 m/S 735 mmHg 87%

    27 Juli, Freitag

    Zeit Temperatur Niederschläge Wind Luftdruck Luftfeuchtigkeit
    00:00 +24°C° 0,1 mm 1 m/S 735 mmHg 87%
    01:00 +24°C° 0,1 mm 1 m/S 735 mmHg 88%
    02:00 +24°C° 0,1 mm 1 m/S 735 mmHg 88%
    03:00 +24°C° 0,1 mm 1 m/S 735 mmHg 89%
    04:00 +24°C° 0,1 mm 2 m/S 735 mmHg 90%
    05:00 +23°C° 0,1 mm 2 m/S 736 mmHg 92%
    06:00 +24°C° 0 mm 2 m/S 736 mmHg 88%
    07:00 +25°C° 0 mm 3 m/S 736 mmHg 85%
    08:00 +26°C° 0 mm 3 m/S 737 mmHg 81%
    09:00 +27°C° 0 mm 3 m/S 737 mmHg 76%
    10:00 +28°C° 0 mm 3 m/S 737 mmHg 72%
    11:00 +29°C° 0 mm 4 m/S 737 mmHg 67%
    12:00 +29°C° 0 mm 4 m/S 736 mmHg 66%
    13:00 +29°C° 0 mm 4 m/S 736 mmHg 65%
    14:00 +30°C° 0 mm 4 m/S 736 mmHg 63%
    15:00 +29°C° 0 mm 3 m/S 736 mmHg 67%
    16:00 +29°C° 0 mm 3 m/S 736 mmHg 70%
    17:00 +29°C° 0 mm 3 m/S 736 mmHg 73%
    18:00 +27°C° 0 mm 2 m/S 736 mmHg 78%
    19:00 +25°C° 0 mm 2 m/S 737 mmHg 83%
    20:00 +24°C° 0 mm 1 m/S 737 mmHg 88%
    21:00 +23°C° 0 mm 1 m/S 737 mmHg 89%
    22:00 +23°C° 0 mm 1 m/S 737 mmHg 91%
    23:00 +22°C° 0 mm 1 m/S 737 mmHg 93%
    Mehr zeigen